Regional Weather Roundup
Issued by NWS

Home | Current Version | Previous Version | Text Only | Print | Product List | Glossary On
Versions: 1 2 3 4 5 6 7 8 9 10 11 12 13 14 15 16 17 18 19 20 21 22 23 24 25 26 27 28 29 30 31 32 33 34 35 36 37 38 39 40 41 42 43 44 45 46 47 48 49 50
000
ASUS46 KSTO 241315
RWRCA

NORTHERN AND CENTRAL CA REGIONAL WEATHER ROUNDUP
NATIONAL WEATHER SERVICE SACRAMENTO CA
600 AM PDT TUE APR 24 2018

NOTE: FAIR INDICATES FEW OR NO CLOUDS BELOW 12,000 FEET WITH NO
SIGNIFICANT WEATHER AND/OR OBSTRUCTIONS TO VISIBILITY.

CAZ001-003-241400-
NORTHWEST AREA

CITY           SKY/WX    TMP DP  RH WIND       PRES   REMARKS
CRESCENT CITY  MOCLDY    52  45  77 SE3       29.95F
UKIAH          PTCLDY    49  46  90 CALM      29.98R
$$

CAZ006-505>513-241400-
BAY AREA

CITY           SKY/WX    TMP DP  RH WIND       PRES   REMARKS
SANTA ROSA     CLOUDY    52  51  97 CALM      29.97S
SAN RAFAEL     N/A       50  MM  MM MISG
NAPA           CLOUDY   N/A N/A N/A W5        29.98F
CONCORD        PTCLDY    53  49  86 SW5       29.98S
OAKLAND CITY   N/A      MM  MM  MM MISG
OAKLAND        CLOUDY    53  51  93 CALM      29.99S
SAN FRAN CITY  N/A       52  MM  85 MISG
SAN FRAN ARPT  CLOUDY    54  48  80 SW6       29.99S
LIVERMORE      PTCLDY    50  50 100 CALM      29.97S
HAYWARD        CLOUDY    56  48  74 N5        29.98F
REDWOOD CITY   N/A       55  MM  84 MISG
MOFFETT ARPT   CLOUDY    56  52  86 CALM      29.99S
SAN JOSE ARPT  CLOUDY    55  51  86 SE5       29.98S FOG
$$
CAZ034-037-514>518-241400-
CENTRAL COAST

CITY           SKY/WX    TMP DP  RH WIND       PRES   REMARKS
WATSONVILLE    CLOUDY    50  50 100 CALM      29.99F FOG
SALINAS        CLOUDY    50  47  89 E6        29.99S
MONTEREY       CLOUDY    48  46  93 E6        29.99F
SAN LUIS OBISP CLOUDY    49  48  97 S6        30.00R FOG
SANTA MARIA    CLOUDY    50  50 100 CALM      30.00R FOG
$$
CAZ015-016-241400-
NORTHERN SACRAMENTO VALLEY

CITY           SKY/WX    TMP DP  RH WIND       PRES   REMARKS
REDDING        PTCLDY    50  45  83 CALM      29.95S
RED BLUFF      PTCLDY    54  40  59 NW8       29.96R
OROVILLE       MOCLDY    56  52  86 CALM      29.96S
$$
CAZ016>018-241400-
SOUTHERN SACRAMENTO VALLEY

CITY           SKY/WX    TMP DP  RH WIND       PRES   REMARKS
AUBURN         PTCLDY    59  41  51 E7        29.97F
LINCOLN        FAIR      52  50  93 CALM      29.93S
MARYSVILLE     PTCLDY    54  51  90 S5        29.95S
SAC INTL ARPT  MOCLDY    54  51  90 S7        29.94R
MATHER AIRPORT CLEAR     48  43  81 S5        29.94R
DOWNTOWN SAC   N/A       56  MM  MM MISG
SAC EXEC ARPT  MOCLDY    54  51  90 SE6       29.95R
VACAVILLE      PTCLDY    54  50  86 SW7       29.95R
$$
CAZ019>021-241400-
SAN JOAQUIN VALLEY

CITY           SKY/WX    TMP DP  RH WIND       PRES   REMARKS
STOCKTON       PTCLDY    54  49  83 NW6       29.94S
MODESTO        CLEAR     56  49  77 NW5       29.94S
MERCED         CLEAR     52  49  89 CALM      29.93R
LEMOORE        CLEAR     53  39  59 W3        29.94R
FRESNO         PTCLDY    60  51  72 NW5       29.93S
HANFORD        CLEAR     60  46  59 NW6       29.94R
PORTERVILLE    CLEAR     55  44  66 S8        29.95S
BAKERSFIELD    CLEAR     64  37  36 CALM      29.95R
$$
CAZ011-012-071-241400-
NORTHERN MOUNTAINS

CITY           SKY/WX    TMP DP  RH WIND       PRES   REMARKS
YREKA          PTCLDY    48  24  39 NE8       30.11F
MOUNT SHASTA   PTCLDY    36  30  79 CALM      30.11S
ALTURAS        CLEAR     29  23  78 CALM      30.20R
$$
CAZ011-012-071-241400-
SIERRA NEVADA MTNS

CITY           SKY/WX    TMP DP  RH WIND       PRES   REMARKS
BLUE CANYON    PTCLDY    53  23  31 VRB6      30.14S
TRUCKEE        PTCLDY    28  28 100 CALM      30.22S
TAHOE VLY ARPT CLEAR     30  27  88 S3        30.21S
MAMMOTH LAKES  FAIR      36  24  61 W8        30.25S WCI  30
$$



USA.gov is the U.S. government's official web portal to all federal, state and local government web resources and services.